| time (UTC) | temp C | wind direction | speed KPH | gust KPH | rain 1hr cm | rain 24hr cm | rain mn cm | humidity % | barometer mb |
| 20260906151541 | 22 | 102 | 8.0 | 14.5 | 0.00 | 0.00 | 0.00 | 84 | 1019.8 |
| 20260906150036 | 22 | 90 | 4.8 | 12.9 | 0.00 | 0.00 | 0.00 | 87 | 1019.7 |
| 20260906144541 | 21 | 80 | 4.8 | 12.9 | 0.00 | 0.00 | 0.00 | 88 | 1019.5 |
| 20260906143039 | 21 | 71 | 6.4 | 12.9 | 0.00 | 0.00 | 0.00 | 88 | 1019.3 |
| 20260906141538 | 21 | 67 | 3.2 | 11.3 | 0.00 | 0.00 | 0.00 | 89 | 1019.5 |
| 20260906140041 | 21 | 65 | 8.0 | 16.1 | 0.00 | 0.00 | 0.00 | 89 | 1019.5 |
| 20260906134551 | 20 | 57 | 9.7 | 17.7 | 0.00 | 0.00 | 0.00 | 90 | 1019.3 |
| 20260906133040 | 20 | 89 | 9.7 | 17.7 | 0.00 | 0.00 | 0.00 | 91 | 1019.2 |
| 20260906131540 | 20 | 59 | 8.0 | 17.7 | 0.00 | 0.00 | 0.00 | 92 | 1019.3 |
| 20260906130044 | 20 | 40 | 9.7 | 17.7 | 0.00 | 0.00 | 0.00 | 93 | 1019.4 |
| 20260906124544 | 19 | 69 | 3.2 | 14.5 | 0.00 | 0.00 | 0.00 | 93 | 1019.5 |
| 20260906123106 | 19 | 55 | 8.0 | 16.1 | 0.00 | 0.00 | 0.00 | 93 | 1019.4 |
| 20260906121542 | 19 | 49 | 4.8 | 12.9 | 0.00 | 0.00 | 0.00 | 93 | 1019.4 |
| 20260906120038 | 19 | 49 | 4.8 | 8.0 | 0.00 | 0.00 | 0.00 | 93 | 1019.1 |
| 20260906114539 | 19 | 44 | 4.8 | 14.5 | 0.00 | 0.00 | 0.00 | 93 | 1018.8 |
| 20260906113042 | 19 | 51 | 4.8 | 16.1 | 0.00 | 0.00 | 0.00 | 93 | 1018.4 |
| 20260906111539 | 19 | 59 | 4.8 | 9.7 | 0.00 | 0.00 | 0.00 | 93 | 1018.2 |
| 20260906110041 | 19 | 63 | 3.2 | 9.7 | 0.00 | 0.00 | 0.00 | 92 | 1018.2 |
| 20260906104544 | 19 | 58 | 4.8 | 11.3 | 0.00 | 0.00 | 0.00 | 92 | 1017.9 |
| 20260906103040 | 20 | 47 | 6.4 | 17.7 | 0.00 | 0.00 | 0.00 | 92 | 1017.7 |
| 20260906101542 | 20 | 58 | 8.0 | 14.5 | 0.00 | 0.00 | 0.00 | 92 | 1017.5 |
| 20260906100040 | 20 | 57 | 9.7 | 17.7 | 0.00 | 0.00 | 0.00 | 92 | 1017.4 |
| 20260906094542 | 20 | 51 | 6.4 | 12.9 | 0.00 | 0.00 | 0.00 | 92 | 1017.2 |
| 20260906093045 | 20 | 32 | 1.6 | 6.4 | 0.00 | 0.00 | 0.00 | 92 | 1017.3 |
| 20260906091555 | 20 | 58 | 3.2 | 6.4 | 0.00 | 0.00 | 0.00 | 91 | 1017.3 |
| 20260906090043 | 20 | 50 | 3.2 | 8.0 | 0.00 | 0.00 | 0.00 | 91 | 1017.1 |
| 20260906084541 | 20 | 45 | 1.6 | 8.0 | 0.00 | 0.00 | 0.00 | 90 | 1017.4 |
| 20260906083041 | 20 | 43 | 1.6 | 8.0 | 0.00 | 0.00 | 0.00 | 90 | 1017.3 |
| 20260906081544 | 21 | 50 | 6.4 | 12.9 | 0.00 | 0.00 | 0.00 | 90 | 1017.3 |
| 20260906080046 | 21 | 42 | 3.2 | 12.9 | 0.00 | 0.00 | 0.00 | 89 | 1017.4 |
| 20260906074548 | 21 | 82 | 6.4 | 14.5 | 0.00 | 0.00 | 0.00 | 88 | 1017.3 |
| 20260906073043 | 21 | 67 | 9.7 | 16.1 | 0.00 | 0.00 | 0.00 | 88 | 1017.4 |
| 20260906071538 | 21 | 59 | 9.7 | 16.1 | 0.00 | 0.00 | 0.00 | 88 | 1017.7 |
| 20260906070039 | 21 | 59 | 8.0 | 17.7 | 0.00 | 0.00 | 0.00 | 87 | 1017.8 |
| 20260906064542 | 21 | 55 | 12.9 | 24.1 | 0.00 | 0.00 | 0.00 | 87 | 1017.9 |
| 20260906063042 | 22 | 65 | 11.3 | 22.5 | 0.00 | 0.00 | 0.00 | 86 | 1017.6 |
| 20260906061543 | 22 | 61 | 11.3 | 30.6 | 0.00 | 0.00 | 0.00 | 86 | 1017.8 |
| 20260906060044 | 22 | 34 | 12.9 | 22.5 | 0.00 | 0.00 | 0.00 | 85 | 1017.8 |
| 20260906054544 | 22 | 46 | 11.3 | 20.9 | 0.00 | 0.00 | 0.00 | 85 | 1017.8 |
| 20260906053043 | 22 | 23 | 14.5 | 22.5 | 0.00 | 0.00 | 0.00 | 84 | 1017.8 |
| 20260906051538 | 22 | 61 | 12.9 | 20.9 | 0.00 | 0.00 | 0.00 | 84 | 1017.6 |
| 20260906050051 | 23 | 53 | 11.3 | 20.9 | 0.00 | 0.00 | 0.00 | 85 | 1017.6 |
| 20260906044541 | 23 | 58 | 9.7 | 20.9 | 0.00 | 0.00 | 0.00 | 85 | 1017.6 |
| 20260906043039 | 23 | 46 | 12.9 | 24.1 | 0.00 | 0.00 | 0.00 | 85 | 1017.2 |
| 20260906041537 | 23 | 57 | 8.0 | 19.3 | 0.00 | 0.00 | 0.00 | 86 | 1016.8 |
| 20260906040044 | 23 | 48 | 4.8 | 8.0 | 0.00 | 0.00 | 0.00 | 85 | 1016.6 |
| 20260906034540 | 23 | 26 | 6.4 | 11.3 | 0.00 | 0.00 | 0.00 | 85 | 1016.4 |
| 20260906033047 | 23 | 292 | 1.6 | 6.4 | 0.00 | 0.00 | 0.00 | 85 | 1016.5 |
| 20260906031538 | 23 | 0 | 0.0 | 4.8 | 0.00 | 0.00 | 0.00 | 84 | 1016.5 |
| 20260906030047 | 23 | 69 | 1.6 | 6.4 | 0.00 | 0.00 | 0.00 | 85 | 1016.1 |
| 20260906024546 | 23 | 84 | 3.2 | 6.4 | 0.00 | 0.00 | 0.00 | 85 | 1016.0 |
| 20260906023049 | 23 | 74 | 3.2 | 8.0 | 0.00 | 0.00 | 0.00 | 85 | 1015.6 |
| 20260906021538 | 23 | 78 | 4.8 | 8.0 | 0.00 | 0.00 | 0.00 | 84 | 1015.8 |
| 20260906020051 | 23 | 78 | 4.8 | 11.3 | 0.00 | 0.00 | 0.00 | 84 | 1015.3 |
| 20260906014542 | 23 | 96 | 4.8 | 14.5 | 0.00 | 0.00 | 0.00 | 84 | 1015.4 |
| 20260906013049 | 24 | 71 | 6.4 | 12.9 | 0.00 | 0.00 | 0.00 | 83 | 1015.1 |
| 20260906011557 | 24 | 43 | 8.0 | 17.7 | 0.00 | 0.00 | 0.00 | 83 | 1015.1 |
| 20260906010043 | 25 | 42 | 4.8 | 14.5 | 0.00 | 0.00 | 0.00 | 83 | 1015.4 |
| 20260906004540 | 25 | 38 | 4.8 | 19.3 | 0.00 | 0.00 | 0.00 | 82 | 1015.3 |
| 20260906003038 | 25 | 28 | 9.7 | 19.3 | 0.00 | 0.00 | 0.00 | 80 | 1015.4 |
| 20260906001540 | 26 | 31 | 9.7 | 20.9 | 0.00 | 0.00 | 0.00 | 80 | 1015.5 |
| 20260906000050 | 26 | 69 | 9.7 | 25.7 | 0.00 | 0.00 | 0.00 | 78 | 1015.1 |
| 20260905234538 | 27 | 46 | 9.7 | 32.2 | 0.00 | 0.00 | 0.00 | 77 | 1014.9 |
| 20260905233040 | 27 | 291 | 12.9 | 25.7 | 0.00 | 0.00 | 0.00 | 77 | 1014.9 |
| 20260905231540 | 28 | 43 | 11.3 | 24.1 | 0.00 | 0.00 | 0.00 | 77 | 1014.9 |
| 20260905230039 | 28 | 46 | 12.9 | 25.7 | 0.00 | 0.00 | 0.00 | 77 | 1015.0 |
| 20260905224548 | 28 | 15 | 17.7 | 25.7 | 0.00 | 0.00 | 0.00 | 77 | 1014.8 |
| 20260905223042 | 28 | 38 | 14.5 | 29.0 | 0.00 | 0.00 | 0.00 | 77 | 1014.6 |
| 20260905221538 | 29 | 9 | 14.5 | 25.7 | 0.00 | 0.00 | 0.00 | 76 | 1014.6 |
| 20260905220038 | 29 | 16 | 16.1 | 27.4 | 0.00 | 0.00 | 0.00 | 74 | 1014.6 |
| 20260905214542 | 30 | 24 | 14.5 | 24.1 | 0.00 | 0.00 | 0.00 | 74 | 1014.5 |
| 20260905213040 | 30 | 11 | 12.9 | 25.7 | 0.00 | 0.00 | 0.00 | 74 | 1014.4 |
| 20260905211549 | 30 | 32 | 11.3 | 25.7 | 0.00 | 0.00 | 0.00 | 74 | 1014.1 |
| 20260905210039 | 31 | 42 | 14.5 | 29.0 | 0.00 | 0.00 | 0.00 | 74 | 1014.1 |
| 20260905204544 | 31 | 30 | 9.7 | 24.1 | 0.00 | 0.00 | 0.00 | 72 | 1014.1 |
| 20260905203040 | 31 | 290 | 16.1 | 24.1 | 0.00 | 0.00 | 0.00 | 71 | 1014.3 |
| 20260905201540 | 32 | 52 | 12.9 | 24.1 | 0.00 | 0.00 | 0.00 | 70 | 1014.5 |
| 20260905200042 | 32 | 277 | 6.4 | 19.3 | 0.00 | 0.00 | 0.00 | 68 | 1014.3 |
| 20260905194541 | 32 | 13 | 9.7 | 19.3 | 0.00 | 0.00 | 0.00 | 67 | 1014.5 |
| 20260905193037 | 32 | 17 | 6.4 | 14.5 | 0.00 | 0.00 | 0.00 | 67 | 1014.6 |
| 20260905191541 | 32 | 16 | 8.0 | 17.7 | 0.00 | 0.00 | 0.00 | 68 | 1014.7 |
| 20260905190039 | 32 | 5 | 6.4 | 16.1 | 0.00 | 0.00 | 0.00 | 66 | 1014.8 |
| 20260905184604 | 32 | 36 | 8.0 | 14.5 | 0.00 | 0.00 | 0.00 | 68 | 1015.0 |
| 20260905183048 | 32 | 44 | 4.8 | 16.1 | 0.00 | 0.00 | 0.00 | 68 | 1014.9 |
| 20260905181547 | 31 | 51 | 8.0 | 20.9 | 0.00 | 0.00 | 0.00 | 69 | 1015.0 |
| 20260905180045 | 31 | 11 | 9.7 | 16.1 | 0.00 | 0.00 | 0.00 | 67 | 1015.0 |
| 20260905174541 | 32 | 67 | 9.7 | 19.3 | 0.00 | 0.00 | 0.00 | 68 | 1015.2 |
| 20260905173038 | 31 | 21 | 8.0 | 24.1 | 0.00 | 0.00 | 0.00 | 68 | 1015.1 |
| 20260905171542 | 32 | 27 | 9.7 | 19.3 | 0.00 | 0.00 | 0.00 | 67 | 1015.3 |
| 20260905170040 | 31 | 42 | 9.7 | 20.9 | 0.00 | 0.00 | 0.00 | 69 | 1015.5 |
| 20260905164542 | 31 | 49 | 9.7 | 17.7 | 0.00 | 0.00 | 0.00 | 68 | 1015.6 |
| 20260905163042 | 31 | 41 | 8.0 | 17.7 | 0.00 | 0.00 | 0.00 | 69 | 1015.4 |
| 20260905161541 | 30 | 75 | 9.7 | 20.9 | 0.00 | 0.00 | 0.00 | 69 | 1015.5 |
| 20260905160042 | 30 | 66 | 12.9 | 22.5 | 0.00 | 0.00 | 0.00 | 71 | 1015.5 |
| 20260905154606 | 30 | 49 | 11.3 | 19.3 | 0.00 | 0.00 | 0.00 | 73 | 1015.4 |
| 20260905153040 | 30 | 61 | 11.3 | 20.9 | 0.00 | 0.00 | 0.00 | 74 | 1015.4 |